Cloud_Cover
100 100 100 100 100 100 100 100 100 100 100 100 100 100 100 100 83 67 76 81 95 100 17 5 5 1 0 0 0 0 0 0
100 100 100 100 100 100 100 36 75 93 100 100 100 92 100 100 100 100 100 100 100 88 5 0 0 0 0 0 0 0 0 0
100 100 100 100 100 100 100 71 100 93 90 100 100 100 100 63 43 31 7 5 5 5 5 0 0 0 0 1 0 0 0 0
100 76 100 89 86 52 92 100 100 100 48 52 73 100 100 38 6 5 3 5 2 5 5 0 0 0 0 5 0 0 0 0
100 100 100 100 100 100 100 100 100 100 100 100 100 87 17 4 0 0 5 5 4 5 4 4 5 0 0 3 0 0 0 0
12 5 29 11 71 64 88 100 92 79 20 59 11 0 0 0 0 0 0 0 3 5 24 91 75 5 2 3 5 5 1 5
54 8 3 5 5 96 100 98 5 3 1 76 10 1 0 0 0 14 58 97 75 66 22 17 11 7 0 0 0 0 0 1
5 7 5 43 9 0 15 0 0 2 100 100 6 4 0 0 13 27 22 81 58 70 92 90 94 39 4 4 4 6 5 4
5 6 0 0 0 0 0 2 0 0 68 71 6 5 0 4 5 43 56 80 100 60 100 100 85 84 45 34 54 80 74 8
0 0 0 0 0 11 47 100 100 57 1 18 92 10 5 42 84 84 70 100 100 100 99 100 100 47 71 98 75 80 84 100
0 0 0 0 2 83 14 51 64 5 5 18 97 88 40 66 97 74 98 94 100 100 100 79 100 48 100 96 100 99 100 96
0 0 0 0 0 0 0 20 43 29 10 5 28 6 27 100 100 99 100 100 100 100 100 100 90 88 100 36 98 91 86 42
0 0 0 0 0 0 0 0 2 67 100 97 81 69 92 100 100 98 100 100 100 100 97 97 98 70 100 72 81 100 100 100
0 0 0 0 2 0 0 1 1 12 96 100 100 100 100 100 80 100 100 100 100 100 99 100 97 40 100 87 90 100 100 100
0 3 3 5 62 100 100 42 39 84 100 100 100 100 99 100 89 98 100 90 94 86 100 100 91 99 100 100 100 100 100 100
0 3 5 8 23 21 4 43 100 100 100 100 100 100 100 88 100 69 100 99 79 98 95 100 100 100 100 100 100 100 98 95
2 1 5 5 21 17 32 44 100 100 100 100 100 100 100 100 100 100 100 100 100 100 100 100 100 69 100 100 100 96 39 99
1 4 3 5 5 5 5 5 5 66 100 100 100 100 49 100 100 100 100 100 100 100 100 100 100 100 100 100 100 100 100 100
20 9 8 5 5 5 52 5 21 75 100 100 100 100 100 100 100 100 100 100 100 100 100 100 100 100 100 100 100 100 100 100